Location: Bukit Nyuki
(2.5885°N, 113.7476°E)
Time: 06:46:23
(UTC+00:00)

ATLAS 3B R/B - Pass Details

Date: 18 May 2021
Orbit: 1006 x 1189 km, 63.8° (Epoch: 17 June)

Event Time Altitude Azimuth Distance (km) Brightness Sun altitude
Exits shadow 20:19:22 54° 305° (NW) 1,202 2.7 -27.5°
Drops below altitude 10° 20:25:20 10° 9° (N) 2,772 5.2 -26.2°
Sets 20:27:59 0° 14° (NNE) 3,728 6.1 -25.6°
